Home > Weather > MD of Lunenburg > Past weeks

Flag for Canada Weather for the Past 2 Weeks in MD of Lunenburg, Nova Scotia, Canada

Now
25 °F

Cold.


Feels Like: 15 °F
Forecast: 11 / 23 °F
Wind: 10 mph from Northwest

Location: McNabs Island - AUT

Current Time: Feb 12, 2016 at 3:52:08 AM

Latest Report: Feb 12, 2016 at 3:00 AM


Visibility: N/A

Pressure: 29.63 "Hg

Humidity: 86%

Dew point: 21 °F

Location of MD of LunenburgLocation

Historic Weather in MD of Lunenburg — Graph

°F

MD of Lunenburg Temperature Yesterday

Maximum temperature yesterday: 35 °F (at 6:00 PM)
Minimum temperature yesterday: 25 °F (at 9:00 AM)
Average temperature yesterday: 29 °F

High & Low Weather Summary for the Past Weeks

 TemperatureHumidityPressure
High50 °F (Feb 4, 7:00 AM)100% (Jan 29, 6:00 PM)30.55 "Hg (Jan 29, 6:00 PM)
Low18 °F (Feb 3, 6:00 AM)39% (Feb 2, 3:00 PM)28.98 "Hg (Jan 29, 5:00 PM)
Average33 °F83%29.85 "Hg
* Reported Jan 28 3:00 AM — Feb 12 3:00 AM, MD of Lunenburg, Weather by CustomWeather, © 2016

Note: Actual official high and low records may vary slightly from our data, if they occured in-between our weather recording intervals... More about our weather records

Advertising

MD of Lunenburg Weather History for the Previous 24 Hours

 ConditionsComfort  
Time TempWeatherWind HumidityBarometerVisibility
3:00 AM
Fri, Feb 12
25 °FCold.10 mph86%29.63 "HgN/A
2:00 AM25 °FChilly.7 mph84%29.60 "HgN/A
1:00 AM26 °FChilly.7 mph84%29.59 "HgN/A
12:00 AM27 °FChilly.8 mph84%29.58 "HgN/A
11:00 PM
Thu, Feb 11
29 °FChilly.2 mph81%29.56 "HgN/A
10:00 PM28 °FChilly.3 mph90%29.55 "HgN/A
9:00 PM30 °FChilly.8 mph84%29.54 "HgN/A
8:00 PM31 °FChilly.7 mph89%29.54 "HgN/A
7:00 PM34 °FChilly.9 mph89%29.52 "HgN/A
6:00 PM35 °FChilly.9 mph89%29.52 "HgN/A
5:00 PM34 °FChilly.8 mph92%29.52 "HgN/A
4:00 PM32 °FChilly.7 mph100%29.52 "HgN/A
3:00 PM32 °FChilly.10 mph87%29.53 "HgN/A
2:00 PM34 °FChilly.8 mph81%29.53 "HgN/A
1:00 PM32 °FChilly.6 mph82%29.55 "HgN/A
12:00 PM30 °FChilly.8 mph88%29.57 "HgN/A
11:00 AM29 °FChilly.3 mph84%29.59 "HgN/A
10:00 AM27 °FChilly.6 mph93%29.59 "HgN/A
9:00 AM25 °FChilly.5 mph100%29.58 "HgN/A
8:00 AM26 °FChilly.2 mph93%29.57 "HgN/A
7:00 AM26 °FChilly.1 mph100%29.57 "HgN/A
6:00 AM26 °FChilly.2 mph94%29.55 "HgN/A
5:00 AM26 °FChilly.1 mph94%29.55 "HgN/A
4:00 AM27 °FChilly.1 mph92%29.55 "HgN/A
3:00 AM29 °FChilly.3 mph82%29.57 "HgN/A
Weather by CustomWeather, © 2016

See weather overviewHow to use our weather pages